Printer-friendly version

IAU Minor Planet Center

Minor Planet Center

MPEC 2006-M52 : 2006 MA14

The following Minor Planet Electronic Circular may be linked-to from your own Web pages, but must not otherwise be redistributed electronically.


Read MPEC 2006-M51 Read MPEC 2006-M53


M.P.E.C. 2006-M52                                Issued 2006 June 29, 17:24 UT

     The Minor Planet Electronic Circulars contain information on unusual
         minor planets and routine data on comets.  They are published
   on behalf of Commission 20 of the International Astronomical Union by the
          Minor Planet Center, Smithsonian Astrophysical Observatory,
                          Cambridge, MA 02138, U.S.A.

                  Supported in part by the Brinson Foundation
                  Supported in part by the TABASGO Foundation
             Prepared using the Tamkin Foundation Computer Network

                              MPC@CFA.HARVARD.EDU
          URL http://cfa-www.harvard.edu/iau/mpc.html  ISSN 1523-6714

                                   2006 MA14

Observations:
     K06M14A* C2006 06 28.73311 22 55 46.34 -56 24 47.4          19.1 V EM052E12
     K06M14A  C2006 06 28.74194 22 55 48.61 -56 23 43.7          18.5 V EM052E12
     K06M14A  C2006 06 28.75086 22 55 50.91 -56 22 39.5          18.9 V EM052E12
     K06M14A  C2006 06 28.75998 22 55 53.29 -56 21 32.9          18.8 V EM052E12
     K06M14A  C2006 06 28.77023 22 55 55.86 -56 20 17.8          19.2 V EM052E12
     K06M14A  C2006 06 28.77053 22 55 55.97 -56 20 14.7          18.7 V EM052E12
     K06M14A  C2006 06 28.77083 22 55 56.03 -56 20 13.9          18.7 V EM052E12
     K06M14A  C2006 06 28.77192 22 55 56.25 -56 20 05.3          18.9 V EM052E12
     K06M14A  C2006 06 28.77234 22 55 56.40 -56 20 02.7          18.8 V EM052E12
     K06M14A  C2006 06 28.77281 22 55 56.49 -56 19 59.6          18.3 V EM052E12
     K06M14A  C2006 06 28.83669 22 56 12.81 -56 12 06.5          18.6 V EM052E12
     K06M14A  C2006 06 28.83712 22 56 12.96 -56 12 04.2          18.7 V EM052E12
     K06M14A  C2006 06 28.83753 22 56 13.01 -56 12 00.7          18.7 V EM052E12
     K06M14A  C2006 06 29.67522 23 00 25.09 -54 28 50.1                 EM052E12
     K06M14A  C2006 06 29.67575 23 00 25.29 -54 28 46.3          18.5 V EM052E12
     K06M14A  C2006 06 29.67630 23 00 25.26 -54 28 41.7          18.6 V EM052E12
     K06M14A  C2006 06 29.67712 23 00 25.55 -54 28 36.0          18.7 V EM052E12
     K06M14A  C2006 06 29.67766 23 00 25.69 -54 28 33.1          18.3 V EM052E12

Observer details:
E12 Siding Spring Survey.  Observer R. H. McNaught.  Measurers E. C. Beshore,
    E. J. Christensen, G. J. Garradd, A. R. Gibbs, A. D. Grauer, R. E. Hill,
    R. A. Kowalski, S. M. Larson, R. H. McNaught.  0.5-m Uppsala Schmidt + CCD.

Orbital elements:
2006 MA14                                                Earth MOID = 0.0784 AU
Epoch 2006 Mar. 6.0 TT = JDT 2453800.5                  MPC
M 321.90442              (2000.0)            P               Q
n   0.32416371     Peri.  330.60918     +0.21504323     +0.97186643
a   2.0987456      Node   311.63039     -0.86905093     +0.14554724
e   0.4873821      Incl.    7.38577     -0.44554111     +0.18518006
P   3.04           H   21.5           G   0.15           U   8
Residuals in seconds of arc
060628 E12  0.1-  0.1+    060628 E12  0.1+  0.3-    060628 E12  0.2-  0.0
060628 E12  0.1-  0.0     060628 E12  0.3-  0.3+    060629 E12  0.1-  0.1-
060628 E12  0.0   0.5-    060628 E12  0.0   0.1-    060629 E12  0.6+  0.1-
060628 E12  0.4+  0.2-    060628 E12  0.2-  0.5-    060629 E12  0.8-  0.5+
060628 E12  0.0   0.2+    060628 E12  0.1-  0.4+    060629 E12  0.1+  0.3+
060628 E12  0.3+  1.1+    060628 E12  0.2+  0.5-    060629 E12  0.2+  0.7-

Ephemeris:
2006 MA14                a,e,i = 2.10, 0.49, 7                   q = 1.0759
Date    TT    R. A. (2000) Decl.     Delta      r     Elong.  Phase     V
2006 06 24    22 22.34   -65 22.9    0.110    1.079   122.3    52.8    18.8
2006 07 04    23 15.86   -45 19.7    0.104    1.076   122.6    52.7    18.7
2006 07 14    23 31.33   -25 01.7    0.112    1.085   125.5    49.7    18.8
2006 07 24    23 32.78   -09 30.2    0.132    1.107   130.6    44.2    19.0
2006 08 03    23 26.92   +00 43.1    0.160    1.138   137.6    36.9    19.3
2006 08 13    23 17.19   +06 52.3    0.195    1.179   145.7    29.0    19.6
2006 08 23    23 05.99   +10 07.2    0.237    1.228   153.8    21.3    19.9
2006 09 02    22 55.70   +11 22.8    0.287    1.283   160.3    15.4    20.2
2006 09 12    22 48.23   +11 25.3    0.347    1.342   162.4    13.1    20.6
2006 09 22    22 44.38   +10 49.5    0.420    1.404   159.0    14.8    21.2
2006 10 02    22 44.39   +10 01.2    0.505    1.468   152.6    18.3    21.8

Kyle E. Smalley              (C) Copyright 2006 MPC           M.P.E.C. 2006-M52

Read MPEC 2006-M51 Read MPEC 2006-M53


Our Web policy. Index to the CBAT/MPC/ICQ pages.


Valid HTML 4.01!